Hourly Data Report for June 20, 2019

TORONTO CITY
ONTARIO
Current Station Operator: ECCC - MSC

43°40'00.000" N
79°24'00.000" W
112.50 m
6158355
71508
XTO

Download Data

Hourly Data (June 2019)
Hourly Data Report for June 20, 2019
TIME
LST
Temp Definition
°C
Dew Point Definition
°C
Rel Hum Definition
%
Precip. Amount Definition
mm

Wind Dir Definition
10's deg

Wind Spd Definition
km/h
Visibility Definition
km
Stn Press Definition
kPa
Hmdx Definition


Wind Chill Definition


Weather Definition


00:00 19.6 11.4 59 0.0       99.15     LegendNANA
01:00 19.9 11.7 59 0.0       99.08     LegendNANA
02:00 20.0 12.0 60 0.0       99.01     LegendNANA
03:00 19.8 12.4 62 0.0       98.95     LegendNANA
04:00 19.6 13.0 65 0.0       98.92     LegendNANA
05:00 19.5 13.8 70 0.0       98.88     LegendNANA
06:00 19.4 14.6 74 0.0       98.88     LegendNANA
07:00 18.4 15.3 82 0.0       98.93     LegendNANA
08:00 18.3 15.7 85 1.3       98.88     LegendNANA
09:00 18.9 15.9 83 0.3       98.86     LegendNANA
10:00 20.0 15.5 76 0.0       98.88     LegendNANA
11:00 20.6 14.7 69 0.0       98.88     LegendNANA
12:00 21.4 15.3 68 0.0       98.86 26   LegendNANA
13:00 21.3 15.1 68 0.0       98.86 25   LegendNANA
14:00 21.0 14.4 66 0.0       98.81 25   LegendNANA
15:00 20.8 15.2 70 0.0       98.82 25   LegendNANA
16:00 20.0 14.2 69 0.0       98.81     LegendNANA
17:00 19.8 14.4 71 0.0       98.84     LegendNANA
18:00 18.3 15.2 82 0.7       98.90     LegendNANA
19:00 17.9 15.8 87 6.9       98.94     LegendNANA
20:00 17.6 15.2 86 4.1       98.97     LegendNANA
21:00 17.4 14.9 85 1.1       99.02     LegendNANA
22:00 17.2 14.8 86 0.2       99.09     LegendNANA
23:00 17.1 14.3 83 0.3       99.12     LegendNANA

Notes on Data Quality.

Legend

  • E = Estimated
  • M = Missing
  • NA = Not Available*
  • [empty] = Indicates an unobserved value
Date modified: